Location: Newark
(42.9858°N, 0.6717°E)
Time: 00:22:43
(UTC+00:00)

ISS - Visible Passes

Search period start: 16 October 2019 00:00
Search period end: 26 October 2019 00:00
Orbit: 411 x 421 km, 51.6° (Epoch: 15 October)

Date Brightness Start Highest point End Pass type
(mag) Time Alt. Az. Time Alt. Az. Time Alt. Az.
23 Oct -1.2 05:35:15 10° S 05:37:55 22° SE 05:40:35 10° E visible
24 Oct -0.7 04:47:53 10° SSE 04:49:32 13° SE 04:51:11 10° ESE visible
25 Oct -3.2 05:33:58 10° SW 05:37:17 58° SE 05:40:37 10° ENE visible
